Home   Weather   Taiohae   Past weeks

Flag for French Polynesia Past Weather in Taiohae, Marquesas Islands, French Polynesia — Yesterday and Last 2 Weeks

Now
81 °F

Overcast.


Feels Like: 84 °F
Forecast: 78 / 83 °F
Wind: 7 mph from North

Location: Atuona

Current Time: Dec 2, 2016 at 5:09:55 pm

Latest Report: Dec 2, 2016 at 4:30 pm


Visibility: 19 mi

Pressure: 29.83 "Hg

Humidity: 68%

Dew Point: 70 °F

Location of TaiohaeLocation

Past Weather in Taiohae — Graph

°F

Taiohae Temperature Yesterday

Maximum temperature yesterday: 89 °F (at 10:30 am)
Minimum temperature yesterday: 74 °F (at 2:30 am)
Average temperature yesterday: 81 °F

High & Low Weather Summary for the Past Weeks

 TemperatureHumidityPressure
High90 °F (Nov 25, 8:30 am)95% (Nov 30, 6:30 am)29.91 "Hg (Nov 30, 6:30 am)
Low73 °F (Nov 22, 4:30 am)51% (Nov 25, 11:30 am)29.74 "Hg (Nov 29, 2:30 pm)
Average80 °F76%29.83 "Hg
* Reported Nov 17 3:30 pm — Dec 2 3:30 pm, Taiohae, Weather by CustomWeather, © 2016

Note: Actual official high and low records may vary slightly from our data, if they occured in-between our weather recording intervals... More about our weather records

Advertising

Taiohae Weather History for the Previous 24 Hours

Scroll right to see more
 ConditionsComfort  
Time TempWeatherWind HumidityBarometerVisibility
3:30 pm
Fri, Dec 2
84 °FWarm.7 mph65%29.82 "HgN/A
2:30 pm83 °FWarm.9 mph65%29.82 "HgN/A
1:30 pm83 °FWarm.7 mph69%29.84 "HgN/A
12:30 pm81 °FWarm.3 mph76%29.87 "HgN/A
11:30 am81 °FWarm.2 mph78%29.88 "HgN/A
10:30 am80 °FWarm.3 mph82%29.90 "HgN/A
9:30 am81 °FOvercast.3 mph76%29.91 "Hg3 mi
8:30 am83 °FOvercast.9 mph71%29.91 "Hg2 mi
7:30 am81 °FWarm.6 mph75%29.90 "HgN/A
6:30 am78 °FOvercast.6 mph84%29.89 "Hg25 mi
5:30 am78 °FWarm.6 mph79%29.88 "HgN/A
4:30 am78 °FWarm.3 mph80%29.86 "HgN/A
3:30 am78 °FWarm.2 mph78%29.84 "HgN/A
2:30 am79 °FWarm.6 mph76%29.83 "HgN/A
1:30 am78 °FWarm.2 mph82%29.83 "HgN/A
12:30 am78 °FWarm.2 mph79%29.85 "HgN/A
11:30 pm
Thu, Dec 1
79 °FWarm.3 mph76%29.87 "HgN/A
10:30 pm79 °FWarm.5 mph78%29.88 "HgN/A
9:30 pm78 °FWarm.3 mph81%29.89 "HgN/A
8:30 pm78 °FWarm.3 mph81%29.88 "HgN/A
7:30 pm80 °FWarm.3 mph75%29.86 "HgN/A
6:30 pm81 °FWarm.6 mph72%29.83 "HgN/A
5:30 pm82 °FWarm.6 mph66%29.81 "HgN/A
Weather by CustomWeather, © 2016

See weather overviewHow to use our weather pages